Temp
16 17 18 18 22 22 24 24 23 23 23 21 21 22 24 21 23 23 16 16 16 16 15 16 16 16 16 16 16 16 16 16 16 16 16 16 16 16 16 16 16 16 16 15 15 15 15 15 16
16 17 17 19 22 22 24 24 23 24 21 20 19 20 22 21 17 16 16 16 16 15 15 15 16 16 16 16 16 16 16 15 15 15 15 15 15 15 15 15 15 15 16 15 15 15 15 14 15
16 17 19 21 22 23 24 23 24 21 19 20 20 18 19 18 16 17 16 15 15 15 15 15 16 16 16 16 16 16 15 15 15 15 15 15 15 15 15 15 15 15 15 15 15 15 15 15 15
15 16 17 20 21 23 23 23 22 20 18 18 19 21 16 15 16 16 15 15 15 15 15 16 16 16 16 16 15 15 16 15 15 15 15 15 15 15 15 15 15 15 15 15 15 15 15 15 15
13 17 20 20 21 23 22 21 21 21 21 20 19 19 17 14 15 15 15 15 15 15 15 15 15 16 15 15 15 15 15 15 15 15 15 15 15 15 15 15 15 15 15 15 15 15 15 15 15
15 19 20 20 21 21 21 20 21 21 20 18 19 19 17 15 15 15 15 15 15 15 15 16 15 15 15 15 15 15 16 16 16 16 16 16 16 16 16 15 15 15 15 14 14 14 15 14 14
16 19 21 21 21 21 22 20 21 21 20 20 18 20 16 15 15 15 16 15 15 15 16 16 15 15 15 15 15 16 16 16 16 16 16 16 16 16 16 15 15 15 15 15 15 14 14 14 14
14 20 20 21 21 21 20 19 18 20 21 16 16 21 17 14 15 15 15 15 15 15 15 15 15 15 15 15 16 16 16 16 16 16 16 16 15 15 15 15 15 15 15 15 15 15 15 15 14
12 19 19 19 21 22 18 20 16 17 17 16 16 17 16 15 15 14 15 15 15 15 15 15 15 15 15 16 16 16 16 16 16 16 16 15 16 16 15 15 15 15 15 15 15 15 15 15 14
15 19 20 20 21 21 19 20 18 18 18 17 16 16 14 15 15 15 15 14 14 15 15 15 15 15 15 16 16 16 16 15 15 15 15 15 15 15 15 15 15 15 14 14 14 14 14 14 14
15 19 17 16 16 19 19 18 17 20 20 20 19 16 13 14 15 15 15 15 15 15 15 15 15 16 16 16 16 15 15 15 15 15 15 15 15 15 15 15 15 14 15 14 14 14 13 13 13
16 14 16 14 14 16 18 18 18 19 19 17 17 16 14 14 14 15 15 14 15 15 15 15 15 16 16 15 15 15 15 15 15 15 15 15 14 14 14 14 14 14 14 14 14 13 13 13 13
16 14 13 13 14 16 16 18 19 18 16 18 18 16 14 14 14 14 14 14 15 15 15 15 15 15 15 15 15 15 15 14 14 14 14 14 14 14 14 13 13 13 13 12 12 12 12 12 12
15 14 14 14 14 15 18 17 18 16 15 15 15 14 14 14 15 15 15 15 15 15 15 15 15 15 15 15 14 14 14 14 14 14 14 14 13 13 13 13 13 12 12 11 11 10 10 10 9
14 15 16 14 14 16 17 18 19 15 14 14 14 14 14 14 14 15 15 15 15 15 15 15 15 15 14 14 14 14 14 13 13 13 13 13 13 13 13 12 12 12 11 11 9 8 8 8 8
16 18 17 15 15 14 16 19 17 14 15 16 14 13 14 15 15 15 15 15 15 15 15 15 15 14 14 14 14 13 13 13 13 13 13 13 12 12 12 12 12 11 11 10 8 7 7 8 8
16 17 17 16 14 16 18 19 17 14 15 17 15 14 14 14 15 15 15 16 15 15 15 15 15 14 14 14 13 13 13 13 13 13 12 12 12 12 12 12 11 11 10 8 7 8 7 7 7
17 16 17 17 15 16 17 18 16 15 15 17 17 16 15 14 15 15 15 15 15 15 15 15 14 14 14 13 13 13 13 13 12 12 11 11 11 11 11 11 11 10 10 9 9 9 8 6 6
17 18 17 14 13 16 15 16 17 15 14 16 17 16 15 15 15 16 16 16 16 16 15 15 14 14 13 13 13 13 12 12 12 11 11 11 11 11 10 10 10 10 10 9 9 9 7 6 7
16 17 16 13 12 16 15 18 17 15 16 15 16 16 15 14 14 16 16 16 16 16 15 15 14 13 13 13 12 12 12 12 11 11 11 11 11 10 10 10 10 10 9 9 9 9 6 5 5
13 18 15 17 13 12 14 18 17 14 13 13 12 12 12 13 13 14 15 15 15 15 15 14 13 13 13 12 12 12 12 12 12 11 11 11 10 10 10 9 9 9 9 9 9 8 5 5 5
16 11 13 14 17 18 13 19 17 15 15 14 14 13 12 12 12 13 13 14 14 14 14 14 13 12 12 12 12 12 12 12 12 11 11 11 10 10 9 9 9 9 9 9 9 8 5 4 4
12 11 13 14 15 14 16 16 18 14 15 15 15 13 12 11 12 13 13 13 13 13 13 13 12 12 12 12 12 12 12 12 12 11 11 11 10 10 9 9 9 9 9 9 8 9 7 4 5
9 13 14 14 16 15 12 13 19 15 16 15 14 12 11 11 12 12 12 12 12 13 12 12 12 12 12 12 12 12 11 11 11 11 11 11 10 10 9 9 9 9 9 9 8 9 8 6 4
12 15 14 15 14 17 10 12 17 14 13 14 14 12 11 11 11 12 12 12 12 12 12 12 12 12 12 11 11 11 11 11 11 11 11 11 11 10 10 9 9 9 9 8 8 8 9 7 5
11 13 15 16 16 16 9 13 16 12 11 10 10 10 10 11 12 12 12 12 12 12 12 12 11 11 11 11 11 11 11 11 11 11 11 11 11 10 10 10 9 9 9 8 8 8 8 7 7
12 13 10 8 7 13 14 14 14 12 12 11 11 10 11 11 11 12 12 12 12 12 12 12 12 11 11 11 11 11 11 11 11 10 10 10 10 10 10 10 10 9 9 8 8 8 8 8 7
10 9 13 12 14 15 15 13 13 8 13 12 12 12 11 11 12 12 12 12 12 12 12 11 11 11 11 10 10 10 10 10 10 10 10 10 10 10 10 10 10 9 9 9 8 8 8 7 8
11 12 10 12 12 15 16 17 12 11 13 13 13 12 11 11 12 12 12 12 11 11 11 10 10 10 10 10 10 10 10 10 10 10 10 10 10 9 9 9 9 9 9 9 8 8 8 7 8
9 11 12 15 12 10 12 13 12 12 12 12 12 11 11 11 12 12 12 11 11 10 10 10 10 10 10 10 10 10 10 10 9 9 9 9 9 9 9 8 8 8 8 8 8 8 8 7 7
Height
1530 1533 1535 1538 1540 1533 1526 1524 1525 1527 1528 1532 1532 1533 1531 1534 1532 1539 1545 1545 1547 1550 1552 1553 1555 1556 1556 1557 1558 1558 1558 1557 1557 1556 1556 1555 1554 1553 1552 1551 1551 1550 1549 1548 1547 1547 1546 1544 1543
1528 1532 1536 1536 1532 1533 1522 1520 1525 1524 1529 1533 1534 1535 1535 1537 1540 1541 1546 1546 1548 1551 1553 1554 1555 1556 1557 1557 1558 1558 1558 1558 1557 1557 1556 1555 1554 1554 1553 1551 1550 1549 1548 1547 1546 1546 1545 1544 1543
1526 1530 1534 1529 1524 1525 1519 1522 1522 1529 1531 1533 1534 1536 1537 1540 1542 1543 1545 1548 1550 1552 1554 1554 1555 1556 1557 1557 1558 1558 1558 1558 1557 1557 1556 1555 1554 1553 1552 1551 1550 1549 1548 1547 1545 1544 1543 1542 1541
1525 1530 1532 1524 1521 1518 1520 1521 1525 1530 1532 1534 1535 1535 1539 1539 1543 1544 1545 1549 1551 1552 1554 1554 1555 1556 1557 1557 1557 1558 1558 1557 1557 1556 1556 1555 1553 1552 1551 1550 1549 1548 1547 1545 1544 1543 1541 1541 1539
1522 1523 1521 1522 1518 1517 1522 1524 1526 1529 1531 1533 1536 1536 1540 1540 1541 1544 1546 1550 1552 1553 1555 1555 1556 1557 1557 1558 1557 1557 1557 1557 1556 1555 1554 1553 1552 1551 1550 1549 1547 1546 1545 1544 1542 1541 1540 1539 1537
1519 1514 1512 1517 1519 1520 1523 1525 1526 1528 1533 1535 1536 1536 1541 1540 1543 1544 1546 1549 1552 1553 1555 1556 1557 1558 1558 1558 1558 1557 1557 1556 1555 1554 1553 1552 1551 1550 1548 1547 1545 1544 1543 1541 1540 1538 1537 1536 1535
1510 1506 1503 1509 1516 1519 1520 1525 1525 1528 1531 1533 1535 1536 1541 1540 1542 1544 1546 1548 1550 1552 1554 1556 1557 1558 1558 1558 1557 1557 1556 1555 1554 1553 1552 1550 1549 1547 1546 1544 1542 1541 1539 1538 1536 1535 1534 1533 1532
1511 1506 1505 1505 1512 1515 1521 1525 1527 1528 1529 1532 1534 1533 1539 1538 1540 1543 1545 1548 1550 1552 1554 1555 1557 1557 1558 1557 1557 1556 1555 1554 1553 1551 1550 1548 1547 1545 1543 1542 1540 1538 1536 1534 1533 1531 1530 1529 1527
1509 1503 1505 1510 1508 1510 1522 1522 1527 1528 1530 1532 1533 1535 1537 1536 1539 1542 1545 1548 1551 1552 1553 1555 1556 1557 1557 1556 1556 1555 1554 1553 1551 1550 1548 1547 1545 1543 1541 1538 1536 1534 1532 1531 1529 1527 1525 1524 1523
1508 1500 1500 1506 1507 1511 1519 1521 1525 1529 1530 1531 1533 1533 1535 1537 1539 1542 1546 1549 1551 1552 1553 1554 1555 1555 1555 1555 1555 1554 1553 1552 1550 1549 1547 1545 1542 1540 1538 1535 1532 1530 1528 1526 1524 1521 1520 1518 1517
1507 1500 1508 1510 1512 1513 1518 1522 1526 1526 1527 1527 1530 1532 1535 1538 1539 1543 1547 1550 1551 1552 1553 1554 1554 1554 1554 1554 1553 1552 1551 1550 1548 1547 1545 1542 1540 1537 1535 1532 1529 1527 1524 1522 1519 1517 1515 1513 1512
1507 1509 1507 1511 1513 1514 1518 1522 1525 1526 1526 1525 1528 1531 1534 1538 1540 1543 1546 1548 1550 1551 1552 1553 1553 1553 1553 1552 1551 1550 1549 1548 1546 1544 1542 1540 1538 1535 1533 1530 1527 1524 1521 1519 1516 1513 1511 1510 1508
1505 1509 1510 1513 1513 1515 1519 1521 1524 1526 1525 1525 1526 1529 1532 1538 1541 1544 1546 1548 1549 1550 1551 1552 1552 1552 1551 1551 1550 1549 1548 1546 1544 1542 1540 1538 1536 1533 1530 1528 1525 1522 1519 1516 1513 1510 1508 1506 1504
1506 1509 1512 1514 1515 1515 1519 1522 1524 1527 1525 1525 1527 1530 1533 1537 1540 1543 1545 1547 1548 1549 1550 1550 1550 1551 1550 1549 1548 1547 1546 1544 1542 1540 1538 1536 1534 1531 1528 1525 1523 1519 1516 1514 1511 1508 1506 1503 1502
1509 1509 1511 1516 1517 1517 1519 1523 1522 1526 1526 1527 1529 1532 1535 1538 1540 1542 1544 1545 1546 1547 1547 1548 1548 1549 1548 1547 1546 1546 1544 1542 1540 1539 1537 1535 1532 1530 1526 1523 1520 1517 1514 1511 1508 1506 1504 1502 1500
1506 1505 1507 1518 1517 1518 1518 1520 1524 1526 1527 1528 1531 1534 1535 1537 1539 1541 1542 1543 1543 1544 1545 1546 1546 1546 1546 1545 1545 1544 1542 1541 1539 1537 1535 1533 1530 1528 1525 1521 1518 1515 1512 1509 1506 1504 1502 1501 1499
1506 1506 1508 1516 1518 1516 1516 1516 1523 1526 1527 1528 1531 1533 1535 1537 1537 1538 1540 1540 1540 1541 1543 1543 1544 1544 1544 1544 1543 1542 1541 1539 1537 1536 1534 1532 1529 1527 1524 1520 1517 1513 1510 1507 1504 1501 1501 1498 1497
1503 1508 1507 1509 1519 1517 1516 1517 1523 1526 1527 1527 1529 1532 1533 1535 1536 1536 1536 1537 1537 1538 1539 1540 1541 1541 1542 1542 1541 1540 1539 1537 1536 1535 1533 1530 1528 1525 1522 1519 1516 1512 1509 1505 1501 1499 1498 1497 1495
1503 1500 1506 1518 1522 1518 1521 1520 1521 1525 1527 1526 1527 1529 1531 1532 1532 1533 1533 1533 1534 1535 1535 1537 1538 1538 1539 1540 1539 1538 1537 1536 1534 1533 1531 1529 1526 1523 1520 1517 1514 1511 1508 1504 1500 1498 1496 1496 1492
1507 1503 1512 1522 1523 1517 1521 1516 1520 1524 1525 1526 1525 1526 1528 1528 1529 1529 1529 1529 1529 1530 1531 1532 1534 1535 1537 1537 1537 1535 1535 1534 1533 1531 1529 1527 1524 1521 1519 1515 1512 1509 1506 1503 1499 1496 1495 1495 1492
1516 1504 1513 1510 1522 1525 1522 1514 1519 1524 1525 1526 1525 1524 1525 1526 1526 1525 1525 1524 1525 1526 1527 1529 1531 1533 1534 1534 1533 1533 1533 1532 1531 1529 1527 1524 1521 1518 1516 1513 1511 1508 1504 1502 1498 1495 1492 1493 1492
1510 1523 1518 1518 1512 1514 1526 1515 1515 1520 1522 1525 1525 1525 1525 1525 1525 1524 1524 1523 1522 1523 1525 1527 1528 1530 1531 1531 1530 1530 1530 1529 1528 1526 1524 1521 1518 1515 1513 1510 1508 1506 1503 1501 1497 1493 1490 1490 1491
1523 1524 1521 1519 1517 1523 1522 1526 1510 1523 1521 1522 1524 1525 1525 1524 1524 1523 1523 1522 1521 1522 1523 1524 1526 1527 1528 1528 1528 1527 1526 1526 1524 1522 1520 1517 1514 1512 1509 1507 1505 1503 1501 1499 1495 1492 1489 1488 1488
1530 1524 1521 1520 1519 1527 1539 1537 1508 1518 1517 1520 1523 1524 1523 1523 1523 1522 1522 1522 1522 1522 1523 1524 1525 1525 1525 1525 1524 1524 1523 1522 1520 1518 1515 1512 1510 1508 1506 1504 1501 1500 1498 1496 1493 1491 1488 1486 1485
1528 1518 1526 1529 1531 1522 1546 1541 1511 1518 1520 1520 1522 1522 1522 1522 1522 1522 1522 1522 1522 1523 1523 1524 1524 1524 1523 1522 1521 1521 1520 1518 1516 1514 1511 1509 1507 1505 1503 1500 1498 1496 1494 1493 1491 1489 1487 1484 1483
1532 1526 1522 1527 1526 1525 1547 1530 1513 1520 1522 1522 1522 1521 1521 1522 1522 1521 1521 1522 1522 1522 1522 1522 1522 1521 1521 1520 1519 1518 1517 1515 1513 1510 1508 1506 1503 1501 1499 1497 1495 1493 1491 1489 1488 1486 1484 1483 1481
1531 1529 1539 1549 1561 1538 1526 1524 1516 1520 1521 1522 1521 1521 1521 1521 1520 1520 1520 1520 1520 1520 1520 1519 1519 1519 1519 1519 1518 1516 1514 1512 1510 1508 1505 1502 1500 1497 1495 1493 1491 1489 1487 1485 1484 1482 1481 1480 1478
1535 1540 1532 1534 1537 1532 1522 1527 1518 1522 1515 1518 1519 1519 1519 1519 1519 1519 1519 1519 1519 1519 1518 1518 1517 1517 1516 1516 1515 1513 1511 1508 1506 1504 1502 1499 1496 1494 1491 1489 1487 1485 1483 1481 1479 1478 1477 1476 1474
1536 1534 1539 1537 1540 1527 1524 1510 1512 1513 1512 1513 1515 1516 1517 1517 1517 1517 1517 1517 1517 1517 1517 1517 1516 1515 1514 1513 1511 1510 1507 1505 1502 1500 1497 1494 1491 1488 1486 1484 1482 1480 1478 1476 1474 1472 1471 1470 1469
1542 1536 1532 1526 1538 1543 1538 1520 1506 1508 1509 1511 1512 1512 1513 1513 1513 1514 1514 1514 1514 1514 1514 1514 1513 1512 1511 1509 1507 1505 1502 1499 1496 1494 1491 1488 1486 1483 1480 1478 1476 1474 1472 1470 1468 1466 1465 1464 1463
Wind_Speed
20 11 10 5 5 5 10 4 2 6 6 3 7 3 1 6 2 3 13 13 15 15 13 12 9 7 6 5 4 4 4 4 4 4 4 4 4 4 3 4 4 5 5 5 6 6 7 7 7
21 14 10 4 7 10 10 5 7 4 5 9 8 5 2 4 5 12 12 15 15 15 13 11 9 7 5 4 3 3 2 2 2 3 3 4 4 5 5 5 5 5 5 5 5 6 8 8 8
22 19 9 5 9 13 9 7 4 5 9 5 5 2 2 6 9 15 12 17 16 14 12 11 9 7 4 4 2 1 1 1 3 4 5 5 6 6 7 7 7 7 7 6 7 8 9 9 9
15 10 3 8 15 13 5 4 5 11 3 4 4 6 4 7 11 10 17 17 16 14 12 11 9 6 4 3 2 1 2 2 3 4 5 6 7 8 8 10 9 9 9 9 10 10 10 11 11
15 10 11 11 13 11 5 2 10 10 7 7 6 5 5 11 12 16 19 16 14 13 10 9 7 4 2 1 0 2 4 6 7 7 8 9 10 11 12 13 14 14 14 13 12 13 14 13 13
11 13 14 16 17 8 6 5 11 9 6 7 4 9 6 14 18 20 18 16 14 14 12 9 6 3 2 1 3 5 7 7 7 8 9 10 11 12 13 14 14 14 14 15 16 16 16 15 14
11 12 17 19 17 13 7 9 11 12 8 7 6 8 5 16 21 21 20 18 17 14 11 8 6 3 2 3 4 6 7 8 9 10 11 12 13 13 13 14 15 16 16 17 18 18 18 18 19
5 9 13 17 18 17 9 10 5 11 8 6 6 5 6 21 24 22 20 17 15 14 11 8 6 4 4 5 6 7 8 10 11 12 12 13 14 15 16 17 18 18 19 19 20 21 21 22 22
3 8 15 15 21 14 13 9 5 5 7 6 6 2 5 25 25 22 19 17 15 13 11 8 6 5 5 7 7 8 9 10 12 13 13 14 16 18 19 20 21 21 22 23 24 24 25 25 25
5 10 16 11 10 11 15 11 13 8 9 6 6 6 12 25 25 22 19 18 15 12 10 8 6 5 6 6 8 9 10 11 12 13 15 17 19 20 20 21 21 22 22 23 24 25 25 26 25
6 9 7 8 9 13 14 11 7 9 8 9 11 13 17 24 24 20 18 16 14 12 10 7 6 6 6 8 9 10 11 11 13 15 17 18 19 19 19 20 20 20 21 21 22 22 22 23 24
5 3 5 9 8 11 12 12 8 9 2 7 8 13 20 21 22 22 19 17 14 11 9 7 6 6 7 9 9 10 11 12 14 16 16 16 16 17 18 19 20 20 21 21 21 21 21 21 21
6 5 5 8 10 11 12 8 6 4 1 5 8 14 20 20 18 19 17 16 13 11 9 8 8 7 8 8 10 10 12 14 15 15 15 15 16 17 18 19 20 20 20 19 19 18 18 18 17
6 10 12 7 7 7 10 6 6 2 4 8 10 14 18 20 20 19 18 15 13 10 10 9 9 9 8 8 9 10 13 14 13 13 13 15 16 18 19 20 20 19 19 18 17 17 16 16 15
15 12 11 7 2 4 10 6 5 3 7 9 10 13 16 17 18 18 16 14 12 11 12 11 10 9 8 8 9 11 13 11 10 11 13 15 17 18 19 20 20 20 20 19 17 15 14 13 12
6 10 11 3 2 2 5 11 6 3 9 10 11 11 14 16 16 16 16 14 14 13 12 12 11 9 8 8 8 13 10 8 9 11 14 16 18 19 20 20 20 21 20 18 16 14 14 12 12
5 12 12 6 5 3 4 7 7 3 7 11 12 11 11 12 16 15 14 14 15 14 14 13 12 10 9 8 9 11 8 8 9 12 15 17 18 19 19 19 19 20 19 15 15 14 12 12 12
10 10 10 11 3 2 4 6 6 3 7 11 12 11 11 12 12 12 14 15 15 16 15 15 14 12 10 8 10 9 7 7 9 12 14 16 17 18 19 19 18 18 18 16 16 14 10 10 11
4 13 13 4 3 2 2 2 6 5 5 9 12 12 11 12 13 14 14 15 16 17 17 17 16 14 10 9 10 9 7 7 8 11 14 17 19 20 19 19 19 18 17 18 19 15 12 9 12
6 14 8 5 4 2 1 5 3 3 4 6 7 8 8 9 11 13 16 19 19 18 17 18 17 14 11 10 11 9 8 7 8 11 15 18 19 20 19 18 19 18 17 17 18 16 10 9 10
6 7 4 5 4 4 1 3 4 3 2 1 1 3 2 2 2 3 6 11 16 16 16 15 15 13 12 11 12 10 10 10 12 15 17 19 20 20 20 18 18 18 18 18 18 18 9 8 7
3 3 4 8 4 2 5 4 4 3 4 3 3 4 4 3 2 3 3 0 7 9 11 12 13 13 12 11 12 11 11 12 15 18 19 20 21 20 21 19 17 17 18 17 17 18 11 7 7
3 1 4 3 4 2 4 0 4 2 6 7 5 4 3 3 4 4 4 4 2 4 8 10 11 10 10 12 10 10 13 15 18 20 21 22 21 20 21 20 18 17 16 17 16 17 14 9 8
3 2 3 3 1 1 4 2 3 4 3 7 4 2 3 3 3 3 2 3 3 4 5 6 7 8 8 8 9 11 14 16 19 21 22 21 21 20 20 20 19 18 17 17 16 16 15 11 10
3 2 2 2 1 1 2 2 4 3 4 3 2 2 3 4 3 3 3 3 3 3 3 3 3 5 7 9 11 12 14 16 18 19 20 20 19 19 19 20 19 19 18 18 16 16 15 13 11
3 3 1 2 2 1 1 4 0 1 2 3 3 3 4 5 4 4 5 5 4 4 3 4 5 6 8 9 10 10 12 14 15 16 17 18 18 18 18 19 20 19 19 19 18 16 15 14 13
0 2 2 6 2 2 1 4 6 5 7 4 4 4 5 7 8 8 7 5 3 2 4 5 6 6 5 6 8 9 11 13 15 17 18 18 19 19 19 19 19 19 20 20 19 19 17 16 15
2 5 2 1 1 3 1 4 4 3 10 8 8 9 8 10 9 7 5 4 4 4 5 5 4 4 5 8 11 14 16 18 20 22 22 23 23 22 22 21 20 20 20 20 21 22 20 19 18
3 2 3 2 2 2 3 3 5 5 7 10 11 11 9 8 8 8 7 7 6 5 4 4 4 7 10 12 15 18 20 21 23 24 25 25 26 25 25 24 23 22 22 22 22 23 23 23 21
2 1 1 2 4 0 2 6 7 8 10 12 14 12 11 11 8 7 8 9 9 8 7 6 7 9 12 15 18 20 22 23 24 24 25 26 26 26 26 25 26 25 25 25 25 25 24 24 25
Wind_Direction
203 197 178 173 216 237 220 202 109 159 173 156 152 203 175 31 18 44 140 150 150 151 158 152 152 148 138 128 117 96 79 68 61 53 47 38 36 31 11 350 333 323 316 308 313 313 333 338 336
191 178 172 194 231 208 207 202 198 156 117 140 135 140 149 82 87 126 139 150 148 150 151 157 150 150 140 130 112 94 68 46 30 13 358 354 351 351 347 340 334 332 322 306 306 303 307 315 321
180 169 179 204 218 218 214 199 153 133 137 156 140 82 108 113 119 138 146 145 146 145 149 156 144 150 147 140 133 107 69 9 343 340 338 335 332 331 323 316 316 316 316 310 299 296 301 302 300
167 170 164 222 204 205 211 170 141 149 157 173 180 137 106 131 139 146 148 147 145 144 144 143 145 152 148 143 116 13 329 317 317 313 314 308 303 302 304 306 309 310 304 298 295 294 291 290 292
168 177 190 210 204 190 180 134 172 171 151 172 174 149 129 150 150 145 147 149 151 146 145 153 151 146 165 160 287 316 308 309 309 307 306 303 301 298 297 297 298 299 296 294 292 290 289 288 286
191 197 196 199 194 180 184 153 169 181 164 160 179 143 134 165 155 155 152 154 158 152 156 168 164 169 172 257 305 313 314 314 314 314 313 310 308 307 305 302 300 299 297 292 290 287 283 283 282
227 195 200 197 189 182 172 171 186 186 165 172 157 157 148 167 167 166 163 168 173 171 166 168 173 189 253 297 305 307 308 309 311 312 310 309 308 306 304 301 297 295 291 288 285 283 282 281 278
240 211 177 190 191 196 154 161 180 186 170 155 163 182 175 180 170 171 172 176 181 180 177 182 197 224 265 292 302 304 305 308 309 310 309 308 306 305 304 301 301 297 293 290 286 284 281 279 280
251 201 188 182 186 178 162 165 152 178 146 159 185 155 166 176 173 172 176 180 181 184 187 196 206 234 271 292 299 303 305 306 308 309 311 312 309 307 306 304 301 298 295 294 291 289 286 284 283
229 203 179 165 171 169 169 182 159 170 163 188 181 195 164 174 174 175 183 188 187 192 200 206 224 257 280 290 298 302 306 309 311 314 316 316 315 312 308 306 304 301 299 296 292 290 289 286 283
176 198 154 152 134 155 155 154 172 174 189 192 197 177 173 178 174 179 188 195 200 202 209 219 245 266 284 299 303 308 311 313 315 317 318 318 318 319 318 316 313 310 308 305 304 302 299 296 293
178 116 140 147 148 140 161 145 163 190 148 177 192 185 179 178 178 183 190 197 203 206 218 237 252 270 290 297 308 311 313 315 318 319 321 321 322 322 322 321 318 317 313 310 308 307 305 303 301
161 140 99 133 134 122 138 152 157 153 199 172 181 175 177 179 179 186 195 202 205 213 229 244 253 274 287 304 306 310 313 317 319 322 325 329 330 329 329 327 325 322 319 316 315 312 310 309 305
133 126 120 114 122 115 149 141 170 131 136 136 151 163 173 181 189 195 202 208 212 223 237 245 259 271 288 298 305 314 318 319 322 324 330 334 335 336 335 335 333 330 326 323 320 318 316 315 311
127 115 116 68 75 107 140 136 152 129 141 137 149 163 175 186 197 205 212 215 221 231 240 245 253 271 284 301 309 318 318 316 322 331 337 340 340 340 340 340 339 336 331 328 326 324 321 316 310
151 161 143 60 359 106 216 167 144 153 159 155 164 178 188 199 207 216 220 222 229 235 242 248 253 269 285 295 305 319 312 317 329 338 339 341 341 341 342 343 342 339 334 330 328 326 324 320 315
163 161 144 130 26 143 229 145 154 169 176 175 185 190 202 214 221 226 228 228 234 239 245 250 254 265 272 285 302 312 310 323 334 337 338 339 340 340 341 342 341 341 339 336 329 327 326 322 319
168 150 149 138 43 171 156 125 154 172 199 197 198 204 215 229 232 234 235 239 240 244 248 249 249 255 261 278 305 309 308 321 331 337 342 341 340 339 341 341 340 344 347 339 331 328 329 323 319
246 152 132 99 22 186 127 186 186 187 232 215 213 217 229 244 248 246 245 245 244 244 245 244 246 248 252 272 303 293 294 303 323 343 345 344 341 337 335 338 340 340 343 344 342 329 329 327 329
202 140 113 98 16 234 84 234 199 217 237 244 228 227 241 257 269 264 254 245 241 243 243 240 238 239 244 264 292 277 272 277 303 322 329 334 335 333 329 330 335 336 336 339 338 332 327 330 351
63 135 148 123 141 79 335 214 184 152 159 194 290 214 208 217 273 296 273 243 234 236 235 233 230 230 243 261 288 272 273 281 296 309 316 320 323 326 328 324 326 332 336 333 336 335 319 315 337
102 9 99 120 177 138 353 174 188 172 163 158 128 137 124 98 61 46 41 242 225 228 227 224 222 229 242 265 283 269 277 286 296 301 307 313 315 316 318 318 316 321 329 326 332 335 324 302 305
84 6 82 86 87 140 43 250 124 171 193 172 138 120 111 100 90 73 64 74 112 192 207 211 218 229 254 274 268 272 281 289 294 302 308 311 311 311 311 314 310 311 318 324 328 333 326 303 282
139 136 83 77 62 68 26 351 171 176 182 169 166 144 154 137 115 102 94 94 115 140 170 196 220 243 252 260 269 276 283 291 298 306 308 311 310 309 308 307 307 303 308 315 323 326 327 309 287
270 218 75 61 15 283 53 259 287 165 176 177 194 176 165 156 129 117 126 132 124 136 162 195 217 242 258 270 278 287 296 301 305 310 311 311 309 306 305 302 303 299 302 304 311 317 319 316 297
6 339 82 163 184 92 98 238 149 252 204 262 263 219 173 164 150 136 142 145 156 177 205 233 246 254 268 279 291 299 305 309 312 313 312 312 310 308 305 300 300 300 295 295 297 302 307 305 303
60 61 40 101 69 277 333 273 239 233 237 231 200 183 179 172 162 151 147 151 167 216 248 259 264 270 282 294 300 306 309 310 312 313 313 312 311 310 308 305 302 300 297 291 290 291 295 296 296
11 125 112 71 156 254 207 270 256 251 200 195 193 183 173 170 171 175 182 194 208 211 218 223 234 259 288 298 301 302 303 304 304 304 304 303 303 303 302 301 300 299 297 295 290 287 284 285 288
154 153 73 83 331 293 300 243 196 216 202 197 193 187 187 188 200 205 211 222 228 233 235 246 279 299 302 304 303 303 303 302 301 301 300 299 297 296 295 295 293 293 293 292 288 286 281 278 279
304 227 236 232 187 92 322 270 180 210 204 202 198 200 202 203 202 210 222 226 229 228 230 251 274 291 301 304 305 306 305 303 301 299 299 298 297 297 295 293 291 291 291 289 285 283 281 277 275